Fort Yukon, AK

2:36 AM AKST on February 27, 2017 (GMT -0900)
Fort Yukon

Weather History for PFYU - January, 2013

Change the Weather History Date:

Thursday, January 3, 2013

  Actual Average Record
Temperature  
Mean Temperature -12 °F -  
Max Temperature -5 °F -11 °F 30 °F (2016)
Min Temperature -20 °F -23 °F -59 °F (1997)
Degree Days  
Heating Degree Days 78    
Moisture  
Dew Point -19 °F    
Average Humidity 80    
Maximum Humidity 100    
Minimum Humidity 41    
Precipitation  
Precipitation 0.00 in - - ()
Sea Level Pressure  
Sea Level Pressure 29.72 in    
Wind  
Wind Speed 0 mph (NE)    
Max Wind Speed 4 mph    
Max Gust Speed -    
Visibility 9 miles    
Events      
Averages and records for this station are not official NWS values.
T = Trace of Precipitation, MM = Missing Value Source: NWS Daily Summary

Daily Weather History Graph

Daily Weather History Graph

Search for Another Location

Airport or City:

Trip Planner

Search our weather history database for the weather conditions in past years. The results will help you decide how hot, cold, wet, or windy it might be!

Date:

Astronomy

Jan. 03, 2013 Rise Set
Actual Time 11:17 AM AKST 2:14 PM AKST
Civil Twilight 9:37 AM AKST 3:54 PM AKST
Nautical Twilight 8:20 AM AKST 5:11 PM AKST
Astronomical Twilight 7:14 AM AKST 6:17 PM AKST
Moon No Moon Rise 11:01 AM AKST (1/3)
Length of Visible Light 6h 16m
Length of Day
2h 56m
Waning Gibbous, 64% of the Moon is Illuminated
Jan 3
Waning Gibbous
Jan 4
Last Quarter
Jan 11
New
Jan 18
First Quarter
Jan 26
Full

Hourly Weather History & Observations

Time (AKST) Temp. Windchill Dew Point Humidity Pressure Visibility Wind Dir Wind Speed Gust Speed Precip Events Conditions
12:16 AM -9.4 °F - -9.4 °F 100% 29.62 in 10.0 mi Calm Calm - N/A   Mostly Cloudy
12:36 AM -9.4 °F - -16.6 °F 71% 29.62 in 10.0 mi Calm Calm - N/A   Mostly Cloudy
12:56 AM -9.4 °F - -9.4 °F 100% 29.62 in 10.0 mi Calm Calm - N/A   Partly Cloudy
1:16 AM -11.2 °F - -18.4 °F 70% 29.63 in 10.0 mi Calm Calm - N/A   Clear
1:36 AM -9.4 °F -18.6 °F -11.2 °F 92% 29.63 in 10.0 mi NNE 3.5 mph - N/A   Clear
1:56 AM -7.6 °F - -11.2 °F 84% 29.64 in 10.0 mi Calm Calm - N/A   Clear
2:16 AM -11.2 °F - -20.2 °F 64% 29.65 in 10.0 mi Calm Calm - N/A   Clear
2:36 AM -9.4 °F - -9.4 °F 100% 29.65 in 10.0 mi Calm Calm - N/A   Clear
2:56 AM -9.4 °F - -20.2 °F 59% 29.65 in 10.0 mi Calm Calm - N/A   Clear
3:16 AM -9.4 °F - -13.0 °F 84% 29.66 in 10.0 mi Calm Calm - N/A   Clear
3:36 AM -11.2 °F - -18.4 °F 70% 29.66 in 10.0 mi Calm Calm - N/A   Clear
3:56 AM -11.2 °F - -14.8 °F 84% 29.66 in 10.0 mi Calm Calm - N/A   Clear
4:16 AM -11.2 °F - -18.4 °F 70% 29.65 in 10.0 mi Calm Calm - N/A   Clear
4:36 AM -11.2 °F - -11.2 °F 100% 29.66 in 10.0 mi Calm Calm - N/A   Clear
4:56 AM -11.2 °F - -23.8 °F 54% 29.66 in 8.0 mi Calm Calm - N/A   Clear
5:16 AM -13.0 °F - -13.0 °F 100% 29.66 in 10.0 mi Calm Calm - N/A   Clear
5:36 AM -13.0 °F - -20.2 °F 70% 29.66 in 10.0 mi Calm Calm - N/A   Clear
5:56 AM -13.0 °F - -16.6 °F 84% 29.66 in 10.0 mi Calm Calm - N/A   Clear
6:16 AM -14.8 °F - -16.6 °F 92% 29.67 in 10.0 mi Calm Calm - N/A   Clear
6:36 AM -14.8 °F - -20.2 °F 77% 29.67 in 10.0 mi Calm Calm - N/A   Clear
6:56 AM -14.8 °F - -14.8 °F 100% 29.67 in 10.0 mi Calm Calm - N/A   Clear
7:16 AM -14.8 °F - -22.0 °F 70% 29.67 in 10.0 mi Calm Calm - N/A   Clear
7:36 AM -14.8 °F - -18.4 °F 84% 29.68 in 10.0 mi Calm Calm - N/A   Clear
7:56 AM -14.8 °F - -18.4 °F 84% 29.69 in 10.0 mi Calm Calm - N/A   Clear
8:16 AM -14.8 °F - -18.4 °F 84% 29.69 in 10.0 mi Calm Calm - N/A   Clear
8:36 AM -14.8 °F - -18.4 °F 84% 29.70 in 10.0 mi Calm Calm - N/A   Clear
8:56 AM -16.6 °F - -22.0 °F 76% 29.70 in 10.0 mi Calm Calm - N/A   Clear
9:16 AM -14.8 °F - -16.6 °F 92% 29.70 in 10.0 mi Calm Calm - N/A   Clear
9:36 AM -13.0 °F - -16.6 °F 84% 29.70 in 10.0 mi Calm Calm - N/A   Clear
9:56 AM -14.8 °F - -22.0 °F 70% 29.70 in 10.0 mi Calm Calm - N/A   Clear
10:16 AM -9.4 °F - -9.4 °F 100% 29.72 in 10.0 mi Calm Calm - N/A   Clear
10:36 AM -9.4 °F - -16.6 °F 71% 29.73 in 10.0 mi Calm Calm - N/A   Clear
10:56 AM -11.2 °F - -20.2 °F 64% 29.73 in 10.0 mi Calm Calm - N/A   Clear
11:16 AM -14.8 °F - -20.2 °F 77% 29.73 in 10.0 mi Calm Calm - N/A   Clear
11:36 AM -14.8 °F - -20.2 °F 77% 29.74 in 10.0 mi Calm Calm - N/A   Partly Cloudy
11:56 AM -11.2 °F - -11.2 °F 100% 29.74 in 10.0 mi Calm Calm - N/A   Partly Cloudy
12:16 PM -13.0 °F - -23.8 °F 59% 29.74 in 10.0 mi Calm Calm - N/A   Partly Cloudy
12:36 PM -14.8 °F - -18.4 °F 84% 29.74 in 10.0 mi Calm Calm - N/A   Partly Cloudy
12:56 PM -14.8 °F - -18.4 °F 84% 29.75 in 10.0 mi Calm Calm - N/A   Partly Cloudy
1:16 PM -14.8 °F - -22.0 °F 70% 29.76 in 10.0 mi Calm Calm - N/A   Partly Cloudy
1:36 PM -14.8 °F - -16.6 °F 92% 29.76 in 10.0 mi Calm Calm - N/A   Partly Cloudy
1:56 PM -16.6 °F - -23.8 °F 70% 29.76 in 10.0 mi Calm Calm - N/A   Partly Cloudy
2:16 PM -14.8 °F -24.8 °F -18.4 °F 84% 29.75 in 10.0 mi ENE 3.5 mph - N/A   Partly Cloudy
2:36 PM -14.8 °F - -16.6 °F 92% 29.76 in 10.0 mi Calm Calm - N/A   Partly Cloudy
2:56 PM -14.8 °F - -20.2 °F 77% 29.76 in 10.0 mi Calm Calm - N/A   Partly Cloudy
3:16 PM -14.8 °F - -18.4 °F 84% 29.77 in 10.0 mi Calm Calm - N/A   Partly Cloudy
3:36 PM -16.6 °F - -23.8 °F 70% 29.77 in 10.0 mi Calm Calm - N/A   Partly Cloudy
3:56 PM -16.6 °F - -18.4 °F 92% 29.77 in 10.0 mi Calm Calm - N/A   Partly Cloudy
4:16 PM -18.4 °F - -23.8 °F 76% 29.77 in 10.0 mi Calm Calm - N/A   Partly Cloudy
4:36 PM -18.4 °F - -23.8 °F 76% 29.76 in 10.0 mi Calm Calm - N/A   Partly Cloudy
4:56 PM -18.4 °F - -23.8 °F 76% 29.76 in 10.0 mi Calm Calm - N/A   Partly Cloudy
5:16 PM -18.4 °F - -20.2 °F 91% 29.77 in 10.0 mi Calm Calm - N/A   Partly Cloudy
5:36 PM -18.4 °F - -23.8 °F 76% 29.77 in 10.0 mi Calm Calm - N/A   Partly Cloudy
5:56 PM -18.4 °F - -25.6 °F 70% 29.77 in 10.0 mi Calm Calm - N/A   Partly Cloudy
6:16 PM -18.4 °F - -20.2 °F 91% 29.78 in 10.0 mi Calm Calm - N/A   Partly Cloudy
6:36 PM -18.4 °F - -23.8 °F 76% 29.78 in 10.0 mi Calm Calm - N/A   Partly Cloudy
6:56 PM -18.4 °F - -25.6 °F 70% 29.77 in 10.0 mi Calm Calm - N/A   Partly Cloudy
7:16 PM -20.2 °F - -25.6 °F 76% 29.77 in 10.0 mi Calm Calm - N/A   Partly Cloudy
7:36 PM -18.4 °F - -22.0 °F 84% 29.77 in 10.0 mi Calm Calm - N/A   Partly Cloudy
7:56 PM -18.4 °F - -23.8 °F 76% 29.77 in 6.0 mi Calm Calm - N/A   Mostly Cloudy
8:16 PM -20.2 °F - -25.6 °F 76% 29.76 in 5.0 mi Calm Calm - N/A   Scattered Clouds
8:36 PM -18.4 °F - -20.2 °F 91% 29.77 in 4.0 mi Calm Calm - N/A   Overcast
8:56 PM -18.4 °F - -23.8 °F 76% 29.77 in 3.0 mi Calm Calm - N/A   Overcast
9:16 PM -18.4 °F - -22.0 °F 84% 29.77 in 3.0 mi Calm Calm - N/A   Mostly Cloudy
9:36 PM -16.6 °F - -20.2 °F 84% 29.77 in 5.0 mi Calm Calm - N/A   Partly Cloudy
9:56 PM -16.6 °F - -23.8 °F 70% 29.76 in 5.0 mi Calm Calm - N/A   Clear
10:16 PM -16.6 °F - -20.2 °F 84% 29.77 in 7.0 mi Calm Calm - N/A   Mostly Cloudy
10:36 PM -16.6 °F - -20.2 °F 84% 29.77 in 6.0 mi Calm Calm - N/A   Overcast
10:56 PM -16.6 °F - -20.2 °F 84% 29.77 in 3.0 mi Calm Calm - N/A   Overcast
11:16 PM -16.6 °F - -22.0 °F 76% 29.77 in 4.0 mi Calm Calm - N/A   Overcast
11:36 PM -16.6 °F - -18.4 °F 92% 29.77 in 7.0 mi Calm Calm - N/A   Mostly Cloudy
11:56 PM -16.6 °F - -20.2 °F 84% 29.77 in 7.0 mi Calm Calm - N/A   Partly Cloudy